Location: Unspecified
(0.0000°N, 0.0000°E)
Time: 21:18:17
(UTC+00:00)

Explorer 7 - Pass Details

Date: 18 June 2025
Orbit: 444 x 569 km, 50.3° (Epoch: 12 July)

Event Time Altitude Azimuth Distance (km) Brightness Sun altitude
Rises 11:40:40 0° 215° (SW) 2,718 10.1 66.1°
Reaches altitude 10° 11:42:58 10° 213° (SSW) 1,805 9.3 66.2°
Maximum altitude 11:47:04 79° 127° (SE) 540 8.0 66.3°
Drops below altitude 10° 11:50:59 10° 40° (NE) 1,722 9.8 66.5°
Sets 11:53:08 0° 39° (NE) 2,581 10.5 66.5°
